TimeCDT,TemperatureF,Dew PointF,Humidity,Sea Level PressureIn,VisibilityMPH,Wind Direction,Wind SpeedMPH,Gust SpeedMPH,PrecipitationIn,Events,Conditions,WindDirDegrees,DateUTC
12:15 AM,55.4,42.8,63,29.30,10.0,SE,9.2,-,N/A,,Clear,140,2012-10-17 05:15:00
12:35 AM,55.4,42.8,63,29.29,10.0,SE,9.2,-,N/A,,Clear,130,2012-10-17 05:35:00
1:35 AM,53.6,44.6,72,29.28,10.0,SE,9.2,-,N/A,,Clear,140,2012-10-17 06:35:00
1:55 AM,53.6,44.6,72,29.27,10.0,SE,9.2,-,N/A,,Scattered Clouds,140,2012-10-17 06:55:00
2:15 AM,53.6,44.6,72,29.27,10.0,SSE,9.2,-,N/A,,Mostly Cloudy,150,2012-10-17 07:15:00
2:35 AM,53.6,44.6,72,29.26,10.0,SE,11.5,-,N/A,,Overcast,140,2012-10-17 07:35:00
3:35 AM,53.6,44.6,72,29.24,10.0,SSE,9.2,-,N/A,,Overcast,160,2012-10-17 08:35:00
3:55 AM,53.6,44.6,72,29.23,10.0,SSE,6.9,-,N/A,,Overcast,150,2012-10-17 08:55:00
4:15 AM,53.6,44.6,72,29.21,10.0,Calm,Calm,-,N/A,Rain,Light Rain,0,2012-10-17 09:15:00
5:15 AM,51.8,46.4,82,29.20,10.0,Calm,Calm,-,N/A,Rain,Light Rain,0,2012-10-17 10:15:00
5:35 AM,51.8,46.4,82,29.20,10.0,East,3.5,-,N/A,Rain,Rain,80,2012-10-17 10:35:00
5:55 AM,51.8,48.2,88,29.19,7.0,ENE,5.8,-,0.02,Rain,Rain,60,2012-10-17 10:55:00
6:35 AM,51.8,48.2,88,29.18,10.0,NNE,3.5,-,0.01,Rain,Light Rain,30,2012-10-17 11:35:00
6:55 AM,50.0,48.2,94,29.18,5.0,Calm,Calm,-,0.04,Rain,Rain,0,2012-10-17 11:55:00
7:15 AM,50.0,48.2,94,29.17,5.0,North,4.6,-,0.04,Rain,Rain,360,2012-10-17 12:15:00
7:35 AM,50.0,50.0,100,29.16,3.0,NNW,4.6,-,0.08,Rain,Heavy Rain,330,2012-10-17 12:35:00
7:55 AM,50.0,50.0,100,29.16,4.0,WNW,3.5,-,0.11,Rain,Rain,300,2012-10-17 12:55:00
8:15 AM,50.0,50.0,100,29.16,2.5,Calm,Calm,-,0.08,Rain,Rain,0,2012-10-17 13:15:00
8:35 AM,50.0,50.0,100,29.16,2.5,Calm,Calm,-,0.20,Rain,Rain,0,2012-10-17 13:35:00
9:55 AM,50.0,48.2,94,29.15,4.0,WNW,18.4,-,0.19,Rain,Rain,290,2012-10-17 14:55:00
10:15 AM,48.2,46.4,93,29.15,5.0,WNW,18.4,24.2,N/A,,Drizzle,300,2012-10-17 15:15:00
10:35 AM,48.2,46.4,93,29.16,5.0,WNW,19.6,24.2,0.01,,Light Drizzle,290,2012-10-17 15:35:00
11:35 AM,46.4,46.4,100,29.16,10.0,West,20.7,27.6,0.01,,Light Drizzle,280,2012-10-17 16:35:00
11:55 AM,46.4,46.4,100,29.15,10.0,WNW,18.4,25.3,0.01,,Light Drizzle,290,2012-10-17 16:55:00
12:35 PM,46.4,44.6,93,29.17,10.0,West,21.9,29.9,N/A,,Overcast,280,2012-10-17 17:35:00
12:55 PM,46.4,44.6,93,29.18,10.0,West,23.0,28.8,N/A,,Overcast,280,2012-10-17 17:55:00
1:15 PM,46.4,44.6,93,29.17,10.0,West,18.4,26.5,N/A,Rain,Light Rain,280,2012-10-17 18:15:00
1:35 PM,48.2,46.4,93,29.18,10.0,West,20.7,26.5,N/A,,Overcast,270,2012-10-17 18:35:00
1:55 PM,50.0,46.4,87,29.18,10.0,West,18.4,23.0,N/A,,Overcast,280,2012-10-17 18:55:00
2:15 PM,50.0,46.4,87,29.17,10.0,West,18.4,25.3,N/A,,Overcast,280,2012-10-17 19:15:00
2:35 PM,50.0,46.4,87,29.17,10.0,West,18.4,25.3,N/A,,Overcast,270,2012-10-17 19:35:00
2:55 PM,48.2,46.4,93,29.17,2.5,West,18.4,25.3,N/A,,Light Drizzle,280,2012-10-17 19:55:00
3:15 PM,46.4,44.6,93,29.18,7.0,WNW,20.7,32.2,N/A,,Overcast,290,2012-10-17 20:15:00
3:35 PM,46.4,44.6,93,29.19,7.0,WNW,17.3,26.5,N/A,,Overcast,290,2012-10-17 20:35:00
3:55 PM,46.4,42.8,87,29.20,10.0,WNW,17.3,27.6,N/A,,Overcast,290,2012-10-17 20:55:00
4:15 PM,44.6,42.8,93,29.21,10.0,West,21.9,26.5,N/A,,Overcast,280,2012-10-17 21:15:00
4:35 PM,44.6,42.8,93,29.22,7.0,West,24.2,-,N/A,,Overcast,270,2012-10-17 21:35:00
4:55 PM,42.8,42.8,100,29.23,5.0,West,19.6,25.3,N/A,,Overcast,270,2012-10-17 21:55:00
5:15 PM,42.8,41.0,93,29.24,2.5,West,19.6,26.5,N/A,,Overcast,270,2012-10-17 22:15:00
5:35 PM,42.8,41.0,93,29.24,3.0,West,18.4,28.8,N/A,Rain,Light Rain,280,2012-10-17 22:35:00
5:55 PM,42.8,41.0,93,29.25,2.0,West,16.1,23.0,N/A,Rain,Light Rain,270,2012-10-17 22:55:00
6:15 PM,42.8,41.0,93,29.25,5.0,West,18.4,24.2,N/A,Rain,Rain,270,2012-10-17 23:15:00
6:35 PM,42.8,41.0,93,29.25,2.5,WNW,16.1,26.5,N/A,Rain,Rain,290,2012-10-17 23:35:00
6:55 PM,42.8,41.0,93,29.25,3.0,West,18.4,25.3,N/A,,Drizzle,280,2012-10-17 23:55:00
7:15 PM,42.8,41.0,93,29.26,7.0,West,18.4,26.5,N/A,,Light Drizzle,280,2012-10-18 00:15:00
7:35 PM,41.0,41.0,100,29.26,7.0,West,17.3,24.2,0.01,Rain,Rain,280,2012-10-18 00:35:00
7:55 PM,41.0,41.0,100,29.27,3.0,West,17.3,24.2,0.02,Rain,Rain,280,2012-10-18 00:55:00
8:15 PM,41.0,41.0,100,29.27,3.0,West,18.4,23.0,N/A,Rain,Rain,280,2012-10-18 01:15:00
8:35 PM,41.0,41.0,100,29.28,4.0,West,17.3,24.2,N/A,,Drizzle,280,2012-10-18 01:35:00
8:55 PM,41.0,41.0,100,29.28,4.0,WNW,11.5,18.4,N/A,,Light Drizzle,290,2012-10-18 01:55:00
9:15 PM,41.0,39.2,93,29.28,7.0,WNW,13.8,19.6,N/A,,Overcast,290,2012-10-18 02:15:00
9:35 PM,41.0,39.2,93,29.28,7.0,WNW,17.3,21.9,N/A,,Overcast,290,2012-10-18 02:35:00
9:55 PM,41.0,39.2,93,29.28,5.0,West,17.3,21.9,N/A,,Overcast,280,2012-10-18 02:55:00
10:15 PM,41.0,39.2,93,29.27,10.0,West,18.4,23.0,N/A,,Light Drizzle,280,2012-10-18 03:15:00
10:35 PM,41.0,39.2,93,29.27,10.0,West,15.0,20.7,N/A,,Overcast,280,2012-10-18 03:35:00
10:55 PM,41.0,39.2,93,29.25,10.0,West,17.3,23.0,N/A,,Overcast,280,2012-10-18 03:55:00
11:15 PM,41.0,39.2,93,29.25,10.0,West,19.6,-,N/A,,Overcast,280,2012-10-18 04:15:00
11:35 PM,41.0,39.2,93,29.24,10.0,West,17.3,-,N/A,,Overcast,280,2012-10-18 04:35:00
11:55 PM,41.0,39.2,93,29.23,10.0,West,16.1,-,N/A,,Overcast,280,2012-10-18 04:55:00